Location: Buttermere
(51.3333°N, 1.5167°W)
Time: 04:48:36
(UTC+00:00)

Cosmos 1733 - Pass Details

Date: 18 September 2020
Orbit: 504 x 523 km, 82.5° (Epoch: 20 October)

Event Time Altitude Azimuth Distance (km) Brightness Sun altitude
Exits shadow 20:52:20 47° 9° (N) 702 3.9 -24.0°
Drops below altitude 10° 20:55:09 10° 10° (N) 1,760 6.2 -24.4°
Sets 20:57:17 0° 11° (N) 2,649 7.2 -24.6°
